Location: Bletchingley
(51.2333°N, 0.1000°W)
Time: 17:30:48
(UTC+00:00)

Cosmos 1844 - Pass Details

Date: 18 September 2020
Orbit: 824 x 866 km, 70.9° (Epoch: 30 October)

Event Time Altitude Azimuth Distance (km) Brightness Sun altitude
Rises 21:10:05 0° 219° (SW) 3,412 6.8 -26.9°
Reaches altitude 10° 21:12:34 10° 222° (SW) 2,473 6.1 -27.2°
Maximum altitude 21:18:12 64° 304° (NW) 933 4.0 -27.8°
Drops below altitude 10° 21:23:49 10° 26° (NNE) 2,459 6.3 -28.5°
Sets 21:26:17 0° 30° (NNE) 3,391 7.0 -28.7°
